Вернуться в каталог

ARIANE 3 DEB

АктивенHEO
NORAD 20488·DEBRIS·🇫🇷 France

Запущен Jul 21, 1988 с Guiana Space Centre

Loading…

Ближайшие Пролёты (ближайшие 24 часа)

TLE

СвежийSource: Space-Track

Эпоха: Sep 14, 2026, 02:15 UTC

1 20488U 88063F   26257.09381576 -.00000002  00000-0  00000-0 0  9991
2 20488   7.2116 102.3778 4786557 187.3719 161.8210  4.96765875660139

Отслеживайте ARIANE 3 DEB в реальном времени с AllMySat

Download on the App Store